owner,sensor,date,latitude,longitude,vertical_datum,sea_water_practical_salinity,qcFlag 
SCCF RECON,ioos:station:SCCF:11:1,2014-11-01T00:00:00Z,26.4679,-82.0631,1.78,29.46,1111122 
SCCF RECON,ioos:station:SCCF:11:1,2014-11-01T01:00:00Z,26.4679,-82.0631,1.84,29.5,1111122 
SCCF RECON,ioos:station:SCCF:11:1,2014-11-01T02:00:00Z,26.4679,-82.0631,1.9,29.49,1111122 
SCCF RECON,ioos:station:SCCF:11:1,2014-11-01T03:00:00Z,26.4679,-82.0631,1.92,29.45,1111122 
SCCF RECON,ioos:station:SCCF:11:1,2014-11-01T04:00:00Z,26.4679,-82.0631,1.93,29.47,1111122 
SCCF RECON,ioos:station:SCCF:11:1,2014-11-01T05:00:00Z,26.4679,-82.0631,1.9,29.6,1111122 
SCCF RECON,ioos:station:SCCF:11:1,2014-11-01T06:00:00Z,26.4679,-82.0631,1.86,29.75,1111122 
SCCF RECON,ioos:station:SCCF:11:1,2014-11-01T07:00:00Z,26.4679,-82.0631,1.82,29.73,1111122 
SCCF RECON,ioos:station:SCCF:11:1,2014-11-01T08:00:00Z,26.4679,-82.0631,1.79,29.44,1111122 
SCCF RECON,ioos:station:SCCF:11:1,2014-11-01T09:00:00Z,26.4679,-82.0631,1.81,29.52,1111122 
SCCF RECON,ioos:station:SCCF:11:1,2014-11-01T10:00:00Z,26.4679,-82.0631,1.85,29.92,1111122 
SCCF RECON,ioos:station:SCCF:11:1,2014-11-01T11:00:00Z,26.4679,-82.0631,1.9,30.2,1111122 
SCCF RECON,ioos:station:SCCF:11:1,2014-11-01T12:00:00Z,26.4679,-82.0631,1.96,30.4,1111122 
SCCF RECON,ioos:station:SCCF:11:1,2014-11-01T13:00:00Z,26.4679,-82.0631,2.03,30.39,1111122 
SCCF RECON,ioos:station:SCCF:11:1,2014-11-01T14:00:00Z,26.4679,-82.0631,2.06,30.07,1111122 
SCCF RECON,ioos:station:SCCF:11:1,2014-11-01T15:00:00Z,26.4679,-82.0631,2.04,29.85,1111122 
SCCF RECON,ioos:station:SCCF:11:1,2014-11-01T16:00:00Z,26.4679,-82.0631,1.98,29.85,1111122 
SCCF RECON,ioos:station:SCCF:11:1,2014-11-01T17:00:00Z,26.4679,-82.0631,1.91,29.84,1111122 
SCCF RECON,ioos:station:SCCF:11:1,2014-11-01T18:00:00Z,26.4679,-82.0631,1.85,29.86,1111122 
SCCF RECON,ioos:station:SCCF:11:1,2014-11-01T19:00:00Z,26.4679,-82.0631,1.79,29.89,1111122 
SCCF RECON,ioos:station:SCCF:11:1,2014-11-01T20:00:00Z,26.4679,-82.0631,1.71,29.95,1111122 
SCCF RECON,ioos:station:SCCF:11:1,2014-11-01T21:00:00Z,26.4679,-82.0631,1.65,30.0,1111122 
SCCF RECON,ioos:station:SCCF:11:1,2014-11-01T22:00:00Z,26.4679,-82.0631,1.61,30.8,1111122 
SCCF RECON,ioos:station:SCCF:11:1,2014-11-01T23:00:00Z,26.4679,-82.0631,1.6,31.37,1111122 
SCCF RECON,ioos:station:SCCF:11:1,2014-11-02T00:00:00Z,26.4679,-82.0631,1.64,32.13,1111122 
SCCF RECON,ioos:station:SCCF:11:1,2014-11-02T01:00:00Z,26.4679,-82.0631,1.71,32.58,1111122 
SCCF RECON,ioos:station:SCCF:11:1,2014-11-02T02:00:00Z,26.4679,-82.0631,1.774,32.1,1111122 
SCCF RECON,ioos:station:SCCF:11:1,2014-11-02T03:00:00Z,26.4679,-82.0631,1.81,31.57,1111122 
SCCF RECON,ioos:station:SCCF:11:1,2014-11-02T04:00:00Z,26.4679,-82.0631,1.81,31.3,1111122 
SCCF RECON,ioos:station:SCCF:11:1,2014-11-02T05:00:00Z,26.4679,-82.0631,1.79,30.86,1111122 
SCCF RECON,ioos:station:SCCF:11:1,2014-11-02T06:00:00Z,26.4679,-82.0631,1.74,30.69,1111122 
SCCF RECON,ioos:station:SCCF:11:1,2014-11-02T07:00:00Z,26.4679,-82.0631,1.69,30.64,1111122 
SCCF RECON,ioos:station:SCCF:11:1,2014-11-02T08:00:00Z,26.4679,-82.0631,1.64,30.6,1111122 
SCCF RECON,ioos:station:SCCF:11:1,2014-11-02T09:00:00Z,26.4679,-82.0631,1.6,30.72,1111122 
SCCF RECON,ioos:station:SCCF:11:1,2014-11-02T10:00:00Z,26.4679,-82.0631,1.57,32.35,1111122 
SCCF RECON,ioos:station:SCCF:11:1,2014-11-02T11:00:00Z,26.4679,-82.0631,1.6,32.94,1111122 
SCCF RECON,ioos:station:SCCF:11:1,2014-11-02T12:00:00Z,26.4679,-82.0631,1.63,32.03,1111122 
SCCF RECON,ioos:station:SCCF:11:1,2014-11-02T13:00:00Z,26.4679,-82.0631,1.71,32.44,1111122 
SCCF RECON,ioos:station:SCCF:11:1,2014-11-02T14:00:00Z,26.4679,-82.0631,1.79,31.36,1111122 
SCCF RECON,ioos:station:SCCF:11:1,2014-11-02T15:00:00Z,26.4679,-82.0631,1.83,30.11,1111122 
SCCF RECON,ioos:station:SCCF:11:1,2014-11-02T16:00:00Z,26.4679,-82.0631,1.87,32.19,1111122 
SCCF RECON,ioos:station:SCCF:11:1,2014-11-02T17:00:00Z,26.4679,-82.0631,1.85,31.76,1111122 
SCCF RECON,ioos:station:SCCF:11:1,2014-11-02T18:00:00Z,26.4679,-82.0631,1.8,31.52,1111122 
SCCF RECON,ioos:station:SCCF:11:1,2014-11-02T19:00:00Z,26.4679,-82.0631,1.75,31.33,1111122 
SCCF RECON,ioos:station:SCCF:11:1,2014-11-02T20:00:00Z,26.4679,-82.0631,1.71,31.66,1111122 
SCCF RECON,ioos:station:SCCF:11:1,2014-11-02T21:00:00Z,26.4679,-82.0631,1.68,31.89,1111122 
SCCF RECON,ioos:station:SCCF:11:1,2014-11-02T22:00:00Z,26.4679,-82.0631,1.66,33.21,1111122 
SCCF RECON,ioos:station:SCCF:11:1,2014-11-02T23:00:00Z,26.4679,-82.0631,1.68,32.96,1111122 
SCCF RECON,ioos:station:SCCF:11:1,2014-11-03T00:00:00Z,26.4679,-82.0631,1.72,32.58,1111122 
SCCF RECON,ioos:station:SCCF:11:1,2014-11-03T01:00:00Z,26.4679,-82.0631,1.77,31.3,1111122 
SCCF RECON,ioos:station:SCCF:11:1,2014-11-03T02:00:00Z,26.4679,-82.0631,1.84,30.37,1111122 
SCCF RECON,ioos:station:SCCF:11:1,2014-11-03T03:00:00Z,26.4679,-82.0631,1.91,31.71,1111122 
SCCF RECON,ioos:station:SCCF:11:1,2014-11-03T04:00:00Z,26.4679,-82.0631,1.95,30.67,1111122 
SCCF RECON,ioos:station:SCCF:11:1,2014-11-03T05:00:00Z,26.4679,-82.0631,1.95,30.53,1111122 
SCCF RECON,ioos:station:SCCF:11:1,2014-11-03T06:00:00Z,26.4679,-82.0631,1.91,31.4,1111122 
SCCF RECON,ioos:station:SCCF:11:1,2014-11-03T07:00:00Z,26.4679,-82.0631,1.84,31.63,1111122 
SCCF RECON,ioos:station:SCCF:11:1,2014-11-03T08:00:00Z,26.4679,-82.0631,1.76,31.64,1111122 
SCCF RECON,ioos:station:SCCF:11:1,2014-11-03T09:00:00Z,26.4679,-82.0631,1.683,31.61,1111122 
SCCF RECON,ioos:station:SCCF:11:1,2014-11-03T10:00:00Z,26.4679,-82.0631,1.63,31.27,1111122 
SCCF RECON,ioos:station:SCCF:11:1,2014-11-03T11:00:00Z,26.4679,-82.0631,1.62,31.26,1111122 
SCCF RECON,ioos:station:SCCF:11:1,2014-11-03T12:00:00Z,26.4679,-82.0631,1.64,31.26,1111122 
SCCF RECON,ioos:station:SCCF:11:1,2014-11-03T13:00:00Z,26.4679,-82.0631,1.7,30.99,1111122 
SCCF RECON,ioos:station:SCCF:11:1,2014-11-03T14:00:00Z,26.4679,-82.0631,1.8,30.38,1111122 
SCCF RECON,ioos:station:SCCF:11:1,2014-11-03T15:00:00Z,26.4679,-82.0631,1.98,30.62,1111122 
SCCF RECON,ioos:station:SCCF:11:1,2014-11-03T16:00:00Z,26.4679,-82.0631,2.02,30.6,1111122 
SCCF RECON,ioos:station:SCCF:11:1,2014-11-03T17:00:00Z,26.4679,-82.0631,1.99,30.64,1111122 
SCCF RECON,ioos:station:SCCF:11:1,2014-11-03T18:00:00Z,26.4679,-82.0631,1.94,31.14,1111122 
SCCF RECON,ioos:station:SCCF:11:1,2014-11-03T19:00:00Z,26.4679,-82.0631,1.87,31.18,1111122 
SCCF RECON,ioos:station:SCCF:11:1,2014-11-03T20:00:00Z,26.4679,-82.0631,1.8,31.22,1111122 
SCCF RECON,ioos:station:SCCF:11:1,2014-11-03T21:00:00Z,26.4679,-82.0631,1.73,31.3,1111122 
SCCF RECON,ioos:station:SCCF:11:1,2014-11-03T22:00:00Z,26.4679,-82.0631,1.69,31.23,1111122 
SCCF RECON,ioos:station:SCCF:11:1,2014-11-03T23:00:00Z,26.4679,-82.0631,1.68,31.03,1111122 
SCCF RECON,ioos:station:SCCF:11:1,2014-11-04T00:00:00Z,26.4679,-82.0631,1.73,30.43,1111122 
SCCF RECON,ioos:station:SCCF:11:1,2014-11-04T01:00:00Z,26.4679,-82.0631,1.8,29.81,1111122 
SCCF RECON,ioos:station:SCCF:11:1,2014-11-04T02:00:00Z,26.4679,-82.0631,1.87,29.82,1111122 
SCCF RECON,ioos:station:SCCF:11:1,2014-11-04T03:00:00Z,26.4679,-82.0631,1.947,30.08,1111122 
SCCF RECON,ioos:station:SCCF:11:1,2014-11-04T04:00:00Z,26.4679,-82.0631,2.01,30.14,1111122 
SCCF RECON,ioos:station:SCCF:11:1,2014-11-04T05:00:00Z,26.4679,-82.0631,2.02,30.19,1111122 
SCCF RECON,ioos:station:SCCF:11:1,2014-11-04T06:00:00Z,26.4679,-82.0631,1.98,30.59,1111122 
SCCF RECON,ioos:station:SCCF:11:1,2014-11-04T07:00:00Z,26.4679,-82.0631,1.9,30.92,1111122 
SCCF RECON,ioos:station:SCCF:11:1,2014-11-04T08:00:00Z,26.4679,-82.0631,1.82,31.02,1111122 
SCCF RECON,ioos:station:SCCF:11:1,2014-11-04T09:00:00Z,26.4679,-82.0631,1.73,31.08,1111122 
SCCF RECON,ioos:station:SCCF:11:1,2014-11-04T10:00:00Z,26.4679,-82.0631,1.65,31.16,1111122 
SCCF RECON,ioos:station:SCCF:11:1,2014-11-04T11:00:00Z,26.4679,-82.0631,1.61,30.94,1111122 
SCCF RECON,ioos:station:SCCF:11:1,2014-11-04T12:00:00Z,26.4679,-82.0631,1.62,30.92,1111122 
SCCF RECON,ioos:station:SCCF:11:1,2014-11-04T13:00:00Z,26.4679,-82.0631,1.67,30.23,1111122 
SCCF RECON,ioos:station:SCCF:11:1,2014-11-04T14:00:00Z,26.4679,-82.0631,1.76,30.52,1111122 
SCCF RECON,ioos:station:SCCF:11:1,2014-11-04T15:00:00Z,26.4679,-82.0631,1.854,30.64,1111122 
SCCF RECON,ioos:station:SCCF:11:1,2014-11-04T16:00:00Z,26.4679,-82.0631,1.95,30.25,1111122 
SCCF RECON,ioos:station:SCCF:11:1,2014-11-04T17:00:00Z,26.4679,-82.0631,2.01,30.27,1111122 
SCCF RECON,ioos:station:SCCF:11:1,2014-11-04T18:00:00Z,26.4679,-82.0631,2.03,30.51,1111122 
SCCF RECON,ioos:station:SCCF:11:1,2014-11-04T19:00:00Z,26.4679,-82.0631,2.01,30.69,1111122 
SCCF RECON,ioos:station:SCCF:11:1,2014-11-04T20:00:00Z,26.4679,-82.0631,1.96,30.84,1111122 
SCCF RECON,ioos:station:SCCF:11:1,2014-11-04T21:00:00Z,26.4679,-82.0631,1.9,30.86,1111122 
SCCF RECON,ioos:station:SCCF:11:1,2014-11-04T22:00:00Z,26.4679,-82.0631,1.84,30.92,1111122 
SCCF RECON,ioos:station:SCCF:11:1,2014-11-04T23:00:00Z,26.4679,-82.0631,1.8,30.82,1111122 
SCCF RECON,ioos:station:SCCF:11:1,2014-11-05T00:00:00Z,26.4679,-82.0631,1.8,30.66,1111122 
SCCF RECON,ioos:station:SCCF:11:1,2014-11-05T01:00:00Z,26.4679,-82.0631,1.84,30.61,1111122 
SCCF RECON,ioos:station:SCCF:11:1,2014-11-05T02:00:00Z,26.4679,-82.0631,1.91,30.51,1111122 
SCCF RECON,ioos:station:SCCF:11:1,2014-11-05T03:00:00Z,26.4679,-82.0631,1.99,30.64,1111122 
SCCF RECON,ioos:station:SCCF:11:1,2014-11-05T04:00:00Z,26.4679,-82.0631,2.06,30.64,1111122 
SCCF RECON,ioos:station:SCCF:11:1,2014-11-05T05:00:00Z,26.4679,-82.0631,2.12,30.72,1111122 
SCCF RECON,ioos:station:SCCF:11:1,2014-11-05T06:00:00Z,26.4679,-82.0631,2.062,30.69,1111122 
SCCF RECON,ioos:station:SCCF:11:1,2014-11-05T07:00:00Z,26.4679,-82.0631,1.9,30.84,1111122 
SCCF RECON,ioos:station:SCCF:11:1,2014-11-05T08:00:00Z,26.4679,-82.0631,1.75,30.87,1111122 
SCCF RECON,ioos:station:SCCF:11:1,2014-11-05T09:00:00Z,26.4679,-82.0631,1.61,30.91,1111122 
SCCF RECON,ioos:station:SCCF:11:1,2014-11-05T10:00:00Z,26.4679,-82.0631,1.497,31.02,1111122 
SCCF RECON,ioos:station:SCCF:11:1,2014-11-05T11:00:00Z,26.4679,-82.0631,1.47,31.04,1111122 
SCCF RECON,ioos:station:SCCF:11:1,2014-11-05T12:00:00Z,26.4679,-82.0631,1.56,30.94,1111122 
SCCF RECON,ioos:station:SCCF:11:1,2014-11-05T13:00:00Z,26.4679,-82.0631,1.751,30.87,1111122 
SCCF RECON,ioos:station:SCCF:11:1,2014-11-05T14:00:00Z,26.4679,-82.0631,1.91,30.86,1111122 
SCCF RECON,ioos:station:SCCF:11:1,2014-11-05T15:00:00Z,26.4679,-82.0631,2.02,30.84,1111122 
SCCF RECON,ioos:station:SCCF:11:1,2014-11-05T16:00:00Z,26.4679,-82.0631,2.113,30.85,1111122 
SCCF RECON,ioos:station:SCCF:11:1,2014-11-05T17:00:00Z,26.4679,-82.0631,2.16,30.8,1111122 
SCCF RECON,ioos:station:SCCF:11:1,2014-11-05T18:00:00Z,26.4679,-82.0631,2.13,30.98,1111122 
SCCF RECON,ioos:station:SCCF:11:1,2014-11-05T19:00:00Z,26.4679,-82.0631,2.02,30.69,1111122 
SCCF RECON,ioos:station:SCCF:11:1,2014-11-05T20:00:00Z,26.4679,-82.0631,1.9,30.8,1111122 
SCCF RECON,ioos:station:SCCF:11:1,2014-11-05T21:00:00Z,26.4679,-82.0631,1.82,30.83,1111122 
SCCF RECON,ioos:station:SCCF:11:1,2014-11-05T22:00:00Z,26.4679,-82.0631,1.76,30.82,1111122 
SCCF RECON,ioos:station:SCCF:11:1,2014-11-05T23:00:00Z,26.4679,-82.0631,1.76,30.82,1111122 
SCCF RECON,ioos:station:SCCF:11:1,2014-11-06T00:00:00Z,26.4679,-82.0631,1.87,30.89,1111122 
SCCF RECON,ioos:station:SCCF:11:1,2014-11-06T01:00:00Z,26.4679,-82.0631,2.02,30.88,1111122 
SCCF RECON,ioos:station:SCCF:11:1,2014-11-06T02:00:00Z,26.4679,-82.0631,2.14,30.77,1111122 
SCCF RECON,ioos:station:SCCF:11:1,2014-11-06T03:00:00Z,26.4679,-82.0631,2.22,30.78,1111122 
SCCF RECON,ioos:station:SCCF:11:1,2014-11-06T04:00:00Z,26.4679,-82.0631,2.28,31.27,1111122 
SCCF RECON,ioos:station:SCCF:11:1,2014-11-06T05:00:00Z,26.4679,-82.0631,2.29,31.6,1111122 
SCCF RECON,ioos:station:SCCF:11:1,2014-11-06T06:00:00Z,26.4679,-82.0631,2.19,30.87,1111122 
SCCF RECON,ioos:station:SCCF:11:1,2014-11-06T07:00:00Z,26.4679,-82.0631,2.02,30.76,1111122 
SCCF RECON,ioos:station:SCCF:11:1,2014-11-06T08:00:00Z,26.4679,-82.0631,1.84,30.85,1111122 
SCCF RECON,ioos:station:SCCF:11:1,2014-11-06T09:00:00Z,26.4679,-82.0631,1.693,30.89,1111122 
SCCF RECON,ioos:station:SCCF:11:1,2014-11-06T10:00:00Z,26.4679,-82.0631,1.55,30.94,1111122 
SCCF RECON,ioos:station:SCCF:11:1,2014-11-06T11:00:00Z,26.4679,-82.0631,1.44,30.97,1111122 
SCCF RECON,ioos:station:SCCF:11:1,2014-11-06T12:00:00Z,26.4679,-82.0631,1.43,31.02,1111122 
SCCF RECON,ioos:station:SCCF:11:1,2014-11-06T13:00:00Z,26.4679,-82.0631,1.575,30.91,1111122 
SCCF RECON,ioos:station:SCCF:11:1,2014-11-06T14:00:00Z,26.4679,-82.0631,1.773,30.85,1111122 
SCCF RECON,ioos:station:SCCF:11:1,2014-11-06T15:00:00Z,26.4679,-82.0631,1.938,30.94,1111122 
SCCF RECON,ioos:station:SCCF:11:1,2014-11-06T16:00:00Z,26.4679,-82.0631,2.07,30.84,1111122 
SCCF RECON,ioos:station:SCCF:11:1,2014-11-06T17:00:00Z,26.4679,-82.0631,2.15,30.74,1111122 
SCCF RECON,ioos:station:SCCF:11:1,2014-11-06T18:00:00Z,26.4679,-82.0631,2.18,31.62,1111122 
SCCF RECON,ioos:station:SCCF:11:1,2014-11-06T19:00:00Z,26.4679,-82.0631,2.15,31.63,1111122 
SCCF RECON,ioos:station:SCCF:11:1,2014-11-06T20:00:00Z,26.4679,-82.0631,2.02,30.76,1111122 
SCCF RECON,ioos:station:SCCF:11:1,2014-11-06T21:00:00Z,26.4679,-82.0631,1.908,30.77,1111122 
SCCF RECON,ioos:station:SCCF:11:1,2014-11-06T22:00:00Z,26.4679,-82.0631,1.84,30.85,1111122 
SCCF RECON,ioos:station:SCCF:11:1,2014-11-06T23:00:00Z,26.4679,-82.0631,1.8,30.83,1111122 
SCCF RECON,ioos:station:SCCF:11:1,2014-11-07T00:00:00Z,26.4679,-82.0631,1.81,30.81,1111122 
SCCF RECON,ioos:station:SCCF:11:1,2014-11-07T01:00:00Z,26.4679,-82.0631,1.942,30.87,1111122 
SCCF RECON,ioos:station:SCCF:11:1,2014-11-07T02:00:00Z,26.4679,-82.0631,2.096,31.75,1111122 
SCCF RECON,ioos:station:SCCF:11:1,2014-11-07T03:00:00Z,26.4679,-82.0631,2.23,31.34,1111122 
SCCF RECON,ioos:station:SCCF:11:1,2014-11-07T04:00:00Z,26.4679,-82.0631,2.31,31.0,1111122 
SCCF RECON,ioos:station:SCCF:11:1,2014-11-07T05:00:00Z,26.4679,-82.0631,2.34,31.68,1111122 
SCCF RECON,ioos:station:SCCF:11:1,2014-11-07T06:00:00Z,26.4679,-82.0631,2.298,30.95,1111122 
SCCF RECON,ioos:station:SCCF:11:1,2014-11-07T07:00:00Z,26.4679,-82.0631,2.15,30.88,1111122 
SCCF RECON,ioos:station:SCCF:11:1,2014-11-07T08:00:00Z,26.4679,-82.0631,1.98,30.91,1111122 
SCCF RECON,ioos:station:SCCF:11:1,2014-11-07T09:00:00Z,26.4679,-82.0631,1.81,30.9,1111122 
SCCF RECON,ioos:station:SCCF:11:1,2014-11-07T10:00:00Z,26.4679,-82.0631,1.66,30.91,1111122 
SCCF RECON,ioos:station:SCCF:11:1,2014-11-07T11:00:00Z,26.4679,-82.0631,1.52,30.94,1111122 
SCCF RECON,ioos:station:SCCF:11:1,2014-11-07T12:00:00Z,26.4679,-82.0631,1.41,30.97,1111122 
SCCF RECON,ioos:station:SCCF:11:1,2014-11-07T13:00:00Z,26.4679,-82.0631,1.42,30.82,1111122 
SCCF RECON,ioos:station:SCCF:11:1,2014-11-07T14:00:00Z,26.4679,-82.0631,1.57,30.95,1111122 
SCCF RECON,ioos:station:SCCF:11:1,2014-11-07T15:00:00Z,26.4679,-82.0631,1.78,30.77,1111122 
SCCF RECON,ioos:station:SCCF:11:1,2014-11-07T16:00:00Z,26.4679,-82.0631,1.91,31.0,1111122 
SCCF RECON,ioos:station:SCCF:11:1,2014-11-07T17:00:00Z,26.4679,-82.0631,2.02,31.14,1111122 
SCCF RECON,ioos:station:SCCF:11:1,2014-11-07T18:00:00Z,26.4679,-82.0631,2.12,31.24,1111122 
SCCF RECON,ioos:station:SCCF:11:1,2014-11-07T19:00:00Z,26.4679,-82.0631,2.15,31.6,1111122 
SCCF RECON,ioos:station:SCCF:11:1,2014-11-07T20:00:00Z,26.4679,-82.0631,2.11,32.06,1111122 
SCCF RECON,ioos:station:SCCF:11:1,2014-11-07T21:00:00Z,26.4679,-82.0631,2.0,30.89,1111122 
SCCF RECON,ioos:station:SCCF:11:1,2014-11-07T22:00:00Z,26.4679,-82.0631,1.9,30.92,1111122 
SCCF RECON,ioos:station:SCCF:11:1,2014-11-07T23:00:00Z,26.4679,-82.0631,1.83,30.93,1111122 
SCCF RECON,ioos:station:SCCF:11:1,2014-11-08T00:00:00Z,26.4679,-82.0631,1.833,30.91,1111122 
SCCF RECON,ioos:station:SCCF:11:1,2014-11-08T01:00:00Z,26.4679,-82.0631,1.92,30.95,1111122 
SCCF RECON,ioos:station:SCCF:11:1,2014-11-08T02:00:00Z,26.4679,-82.0631,2.041,31.1,1111122 
SCCF RECON,ioos:station:SCCF:11:1,2014-11-08T03:00:00Z,26.4679,-82.0631,2.17,32.01,1111122 
SCCF RECON,ioos:station:SCCF:11:1,2014-11-08T04:00:00Z,26.4679,-82.0631,2.27,31.54,1111122 
SCCF RECON,ioos:station:SCCF:11:1,2014-11-08T05:00:00Z,26.4679,-82.0631,2.32,31.44,1111122 
SCCF RECON,ioos:station:SCCF:11:1,2014-11-08T06:00:00Z,26.4679,-82.0631,2.31,31.56,1111122 
SCCF RECON,ioos:station:SCCF:11:1,2014-11-08T07:00:00Z,26.4679,-82.0631,2.242,31.17,1111122 
SCCF RECON,ioos:station:SCCF:11:1,2014-11-08T08:00:00Z,26.4679,-82.0631,2.09,31.07,1111122 
SCCF RECON,ioos:station:SCCF:11:1,2014-11-08T09:00:00Z,26.4679,-82.0631,1.917,31.05,1111122 
SCCF RECON,ioos:station:SCCF:11:1,2014-11-08T10:00:00Z,26.4679,-82.0631,1.757,31.02,1111122 
SCCF RECON,ioos:station:SCCF:11:1,2014-11-08T11:00:00Z,26.4679,-82.0631,1.61,31.03,1111122 
SCCF RECON,ioos:station:SCCF:11:1,2014-11-08T12:00:00Z,26.4679,-82.0631,1.461,31.06,1111122 
SCCF RECON,ioos:station:SCCF:11:1,2014-11-08T13:00:00Z,26.4679,-82.0631,1.38,31.04,1111122 
SCCF RECON,ioos:station:SCCF:11:1,2014-11-08T14:00:00Z,26.4679,-82.0631,1.43,30.82,1111122 
SCCF RECON,ioos:station:SCCF:11:1,2014-11-08T15:00:00Z,26.4679,-82.0631,1.62,30.79,1111122 
SCCF RECON,ioos:station:SCCF:11:1,2014-11-08T16:00:00Z,26.4679,-82.0631,1.8,30.67,1111122 
SCCF RECON,ioos:station:SCCF:11:1,2014-11-08T17:00:00Z,26.4679,-82.0631,1.92,30.91,1111122 
SCCF RECON,ioos:station:SCCF:11:1,2014-11-08T18:00:00Z,26.4679,-82.0631,2.0,31.05,1111122 
SCCF RECON,ioos:station:SCCF:11:1,2014-11-08T19:00:00Z,26.4679,-82.0631,2.07,31.32,1111122 
SCCF RECON,ioos:station:SCCF:11:1,2014-11-08T20:00:00Z,26.4679,-82.0631,2.09,31.71,1111122 
SCCF RECON,ioos:station:SCCF:11:1,2014-11-08T21:00:00Z,26.4679,-82.0631,2.06,32.18,1111122 
SCCF RECON,ioos:station:SCCF:11:1,2014-11-08T22:00:00Z,26.4679,-82.0631,2.01,31.03,1111122 
SCCF RECON,ioos:station:SCCF:11:1,2014-11-08T23:00:00Z,26.4679,-82.0631,1.932,30.83,1111122 
SCCF RECON,ioos:station:SCCF:11:1,2014-11-09T00:00:00Z,26.4679,-82.0631,1.85,30.82,1111122 
SCCF RECON,ioos:station:SCCF:11:1,2014-11-09T01:00:00Z,26.4679,-82.0631,1.82,30.81,1111122 
SCCF RECON,ioos:station:SCCF:11:1,2014-11-09T02:00:00Z,26.4679,-82.0631,1.9,30.99,1111122 
SCCF RECON,ioos:station:SCCF:11:1,2014-11-09T03:00:00Z,26.4679,-82.0631,2.042,31.26,1111122 
SCCF RECON,ioos:station:SCCF:11:1,2014-11-09T04:00:00Z,26.4679,-82.0631,2.178,31.31,1111122 
SCCF RECON,ioos:station:SCCF:11:1,2014-11-09T05:00:00Z,26.4679,-82.0631,2.19,31.23,1111122 
SCCF RECON,ioos:station:SCCF:11:1,2014-11-09T06:00:00Z,26.4679,-82.0631,2.17,31.22,1111122 
SCCF RECON,ioos:station:SCCF:11:1,2014-11-09T07:00:00Z,26.4679,-82.0631,2.2,31.24,1111122 
SCCF RECON,ioos:station:SCCF:11:1,2014-11-09T08:00:00Z,26.4679,-82.0631,2.18,31.22,1111122 
SCCF RECON,ioos:station:SCCF:11:1,2014-11-09T09:00:00Z,26.4679,-82.0631,2.047,31.04,1111122 
SCCF RECON,ioos:station:SCCF:11:1,2014-11-09T10:00:00Z,26.4679,-82.0631,1.871,30.8,1111122 
SCCF RECON,ioos:station:SCCF:11:1,2014-11-09T11:00:00Z,26.4679,-82.0631,1.723,30.77,1111122 
SCCF RECON,ioos:station:SCCF:11:1,2014-11-09T12:00:00Z,26.4679,-82.0631,1.6,30.73,1111122 
SCCF RECON,ioos:station:SCCF:11:1,2014-11-09T13:00:00Z,26.4679,-82.0631,1.492,30.71,1111122 
SCCF RECON,ioos:station:SCCF:11:1,2014-11-09T14:00:00Z,26.4679,-82.0631,1.43,30.7,1111122 
SCCF RECON,ioos:station:SCCF:11:1,2014-11-09T15:00:00Z,26.4679,-82.0631,1.46,30.7,1111122 
SCCF RECON,ioos:station:SCCF:11:1,2014-11-09T16:00:00Z,26.4679,-82.0631,1.62,30.78,1111122 
SCCF RECON,ioos:station:SCCF:11:1,2014-11-09T17:00:00Z,26.4679,-82.0631,1.77,30.76,1111122 
SCCF RECON,ioos:station:SCCF:11:1,2014-11-09T18:00:00Z,26.4679,-82.0631,1.88,30.76,1111122 
SCCF RECON,ioos:station:SCCF:11:1,2014-11-09T19:00:00Z,26.4679,-82.0631,1.96,30.76,1111122 
SCCF RECON,ioos:station:SCCF:11:1,2014-11-09T20:00:00Z,26.4679,-82.0631,1.98,30.73,1111122 
SCCF RECON,ioos:station:SCCF:11:1,2014-11-09T21:00:00Z,26.4679,-82.0631,1.92,30.74,1111122 
SCCF RECON,ioos:station:SCCF:11:1,2014-11-09T22:00:00Z,26.4679,-82.0631,1.872,30.62,1111122 
SCCF RECON,ioos:station:SCCF:11:1,2014-11-09T23:00:00Z,26.4679,-82.0631,1.87,30.57,1111122 
SCCF RECON,ioos:station:SCCF:11:1,2014-11-10T00:00:00Z,26.4679,-82.0631,1.832,30.59,1111122 
SCCF RECON,ioos:station:SCCF:11:1,2014-11-10T01:00:00Z,26.4679,-82.0631,1.75,30.56,1111122 
SCCF RECON,ioos:station:SCCF:11:1,2014-11-10T02:00:00Z,26.4679,-82.0631,1.72,30.54,1111122 
SCCF RECON,ioos:station:SCCF:11:1,2014-11-10T03:00:00Z,26.4679,-82.0631,1.808,30.55,1111122 
SCCF RECON,ioos:station:SCCF:11:1,2014-11-10T04:00:00Z,26.4679,-82.0631,1.941,30.59,1111122 
SCCF RECON,ioos:station:SCCF:11:1,2014-11-10T05:00:00Z,26.4679,-82.0631,2.06,30.17,1111122 
SCCF RECON,ioos:station:SCCF:11:1,2014-11-10T06:00:00Z,26.4679,-82.0631,2.17,30.12,1111122 
SCCF RECON,ioos:station:SCCF:11:1,2014-11-10T07:00:00Z,26.4679,-82.0631,2.19,30.13,1111122 
SCCF RECON,ioos:station:SCCF:11:1,2014-11-10T08:00:00Z,26.4679,-82.0631,2.18,30.1,1111122 
SCCF RECON,ioos:station:SCCF:11:1,2014-11-10T09:00:00Z,26.4679,-82.0631,2.05,30.15,1111122 
SCCF RECON,ioos:station:SCCF:11:1,2014-11-10T10:00:00Z,26.4679,-82.0631,1.88,30.36,1111122 
SCCF RECON,ioos:station:SCCF:11:1,2014-11-10T11:00:00Z,26.4679,-82.0631,1.73,30.39,1111122 
SCCF RECON,ioos:station:SCCF:11:1,2014-11-10T12:00:00Z,26.4679,-82.0631,1.62,30.42,1111122 
SCCF RECON,ioos:station:SCCF:11:1,2014-11-10T13:00:00Z,26.4679,-82.0631,1.5,30.47,1111122 
SCCF RECON,ioos:station:SCCF:11:1,2014-11-10T14:00:00Z,26.4679,-82.0631,1.404,30.46,1111122 
SCCF RECON,ioos:station:SCCF:11:1,2014-11-10T15:00:00Z,26.4679,-82.0631,1.42,30.44,1111122 
SCCF RECON,ioos:station:SCCF:11:1,2014-11-10T16:00:00Z,26.4679,-82.0631,1.55,30.46,1111122 
SCCF RECON,ioos:station:SCCF:11:1,2014-11-10T17:00:00Z,26.4679,-82.0631,1.72,30.33,1111122 
SCCF RECON,ioos:station:SCCF:11:1,2014-11-10T18:00:00Z,26.4679,-82.0631,1.84,30.14,1111122 
SCCF RECON,ioos:station:SCCF:11:1,2014-11-10T19:00:00Z,26.4679,-82.0631,1.92,30.3,1111122 
SCCF RECON,ioos:station:SCCF:11:1,2014-11-10T20:00:00Z,26.4679,-82.0631,1.98,30.08,1111122 
SCCF RECON,ioos:station:SCCF:11:1,2014-11-10T21:00:00Z,26.4679,-82.0631,2.02,30.14,1111122 
SCCF RECON,ioos:station:SCCF:11:1,2014-11-10T22:00:00Z,26.4679,-82.0631,2.0,30.09,1111122 
SCCF RECON,ioos:station:SCCF:11:1,2014-11-10T23:00:00Z,26.4679,-82.0631,1.93,30.15,1111122 
SCCF RECON,ioos:station:SCCF:11:1,2014-11-11T00:00:00Z,26.4679,-82.0631,1.85,30.29,1111122 
SCCF RECON,ioos:station:SCCF:11:1,2014-11-11T01:00:00Z,26.4679,-82.0631,1.79,30.35,1111122 
SCCF RECON,ioos:station:SCCF:11:1,2014-11-11T02:00:00Z,26.4679,-82.0631,1.77,30.22,1111122 
SCCF RECON,ioos:station:SCCF:11:1,2014-11-11T03:00:00Z,26.4679,-82.0631,1.81,30.46,1111122 
SCCF RECON,ioos:station:SCCF:11:1,2014-11-11T04:00:00Z,26.4679,-82.0631,1.89,30.46,1111122 
SCCF RECON,ioos:station:SCCF:11:1,2014-11-11T05:00:00Z,26.4679,-82.0631,1.99,30.43,1111122 
SCCF RECON,ioos:station:SCCF:11:1,2014-11-11T06:00:00Z,26.4679,-82.0631,2.09,30.24,1111122 
SCCF RECON,ioos:station:SCCF:11:1,2014-11-11T07:00:00Z,26.4679,-82.0631,2.14,30.05,1111122 
SCCF RECON,ioos:station:SCCF:11:1,2014-11-11T08:00:00Z,26.4679,-82.0631,2.15,30.04,1111122 
SCCF RECON,ioos:station:SCCF:11:1,2014-11-11T09:00:00Z,26.4679,-82.0631,2.08,30.23,1111122 
SCCF RECON,ioos:station:SCCF:11:1,2014-11-11T10:00:00Z,26.4679,-82.0631,1.96,30.32,1111122 
SCCF RECON,ioos:station:SCCF:11:1,2014-11-11T11:00:00Z,26.4679,-82.0631,1.84,30.39,1111122 
SCCF RECON,ioos:station:SCCF:11:1,2014-11-11T12:00:00Z,26.4679,-82.0631,1.74,30.4,1111122 
SCCF RECON,ioos:station:SCCF:11:1,2014-11-11T13:00:00Z,26.4679,-82.0631,1.63,30.42,1111122 
SCCF RECON,ioos:station:SCCF:11:1,2014-11-11T14:00:00Z,26.4679,-82.0631,1.53,30.45,1111122 
SCCF RECON,ioos:station:SCCF:11:1,2014-11-11T15:00:00Z,26.4679,-82.0631,1.5,30.47,1111122 
SCCF RECON,ioos:station:SCCF:11:1,2014-11-11T16:00:00Z,26.4679,-82.0631,1.53,30.47,1111122 
SCCF RECON,ioos:station:SCCF:11:1,2014-11-11T17:00:00Z,26.4679,-82.0631,1.66,30.43,1111122 
SCCF RECON,ioos:station:SCCF:11:1,2014-11-11T18:00:00Z,26.4679,-82.0631,1.788,30.57,1111122 
SCCF RECON,ioos:station:SCCF:11:1,2014-11-11T19:00:00Z,26.4679,-82.0631,1.89,30.63,1111122 